Weather History for Milton, FL

Change the Weather History Date:

Saturday, March 23, 2013

  Actual Average (KNSE) Record (KNSE)
Temperature  
Mean Temperature 67 °F -  
Max Temperature 73 °F 70 °F 84 °F (2011)
Min Temperature 61 °F 50 °F 37 °F (1998)
Cooling Degree Days 2    
Growing Degree Days 17 (Base 50)    
Moisture  
Dew Point 57 °F    
Average Humidity 75    
Maximum Humidity 96    
Minimum Humidity 39    
Precipitation  
Precipitation 0.13 in - - ()
Sea Level Pressure  
Sea Level Pressure 29.75 in    
Wind  
Wind Speed 8 mph (ESE)    
Max Wind Speed 13 mph    
Max Gust Speed -    
Visibility 9 miles    
Events Rain , Thunderstorm    
Averages and records for this station are not official NWS values.
T = Trace of Precipitation, MM = Missing Value Source: NWS Daily Summary

Daily Weather History Graph

Daily Weather History Graph

Search for Another Location

Airport:

Trip Planner

Search our weather history database for the weather conditions in past years. The results will help you decide how hot, cold, wet, or windy it might be!

Date:

Astronomy

Mar. 23, 2013 Rise Set
Actual Time 6:47 AM CDT 7:01 PM CDT
Civil Twilight 6:23 AM CDT 7:25 PM CDT
Nautical Twilight 5:55 AM CDT 7:53 PM CDT
Astronomical Twilight 5:27 AM CDT 8:22 PM CDT
Moon 3:40 PM CDT (3/23) 4:10 AM CDT (3/23)
Length of Visible Light 13h 01m
Length of Day
12h 13m
Waxing Gibbous, 85% of the Moon is Illuminated
Mar 23
Waxing Gibbous
Mar 27
Full
Apr 2
Last Quarter
Apr 10
New
Apr 18
First Quarter

Hourly Weather History & Observations

Time (CDT) Temp. Dew Point Humidity Pressure Visibility Wind Dir Wind Speed Gust Speed Precip Events Conditions
12:56 AM 62.1 °F 37.0 °F 39% 29.87 in 10.0 mi ESE 6.9 mph - N/A   Overcast
1:56 AM 62.1 °F 37.0 °F 39% 29.86 in 10.0 mi ESE 5.8 mph - N/A   Overcast
2:56 AM 62.1 °F 39.0 °F 43% 29.83 in 10.0 mi ESE 8.1 mph - N/A   Overcast
3:56 AM 62.1 °F 42.1 °F 48% 29.79 in 10.0 mi ESE 6.9 mph - N/A   Overcast
4:51 AM 62.6 °F 46.4 °F 55% 29.84 in 10.0 mi SE 9.2 mph - 0.00 in   Overcast
4:56 AM 62.1 °F 46.0 °F 56% 29.80 in 10.0 mi SE 8.1 mph - 0.00 in   Overcast
5:56 AM 61.0 °F 46.0 °F 58% 29.81 in 10.0 mi East 3.5 mph - N/A   Overcast
6:56 AM 61.0 °F 46.0 °F 58% 29.82 in 10.0 mi East 5.8 mph - N/A   Overcast
7:56 AM 62.1 °F 48.9 °F 62% 29.82 in 10.0 mi SE 5.8 mph - N/A   Overcast
8:27 AM 64.4 °F 55.4 °F 73% 29.84 in 10.0 mi SSE 12.7 mph - N/A   Overcast
8:56 AM 64.9 °F 57.0 °F 75% 29.79 in 10.0 mi SSE 12.7 mph - N/A   Overcast
9:42 AM 66.2 °F 60.8 °F 83% 29.85 in 10.0 mi ESE 5.8 mph - N/A   Overcast
9:56 AM 68.0 °F 60.1 °F 76% 29.81 in 10.0 mi ESE 5.8 mph - N/A   Overcast
10:56 AM 69.1 °F 61.0 °F 75% 29.81 in 10.0 mi East 3.5 mph - N/A   Overcast
11:32 AM 69.8 °F 59.0 °F 68% 29.84 in 10.0 mi NE 5.8 mph - N/A   Overcast
11:56 AM 72.0 °F 60.1 °F 66% 29.79 in 10.0 mi ENE 6.9 mph - N/A   Overcast
12:48 PM 73.4 °F 62.6 °F 69% 29.80 in 10.0 mi NE 8.1 mph - N/A Thunderstorm Thunderstorm
12:56 PM 73.0 °F 62.1 °F 68% 29.76 in 10.0 mi ENE 5.8 mph - N/A Thunderstorm Thunderstorm
1:03 PM 71.6 °F 60.8 °F 69% 29.79 in 10.0 mi NE 8.1 mph - N/A   Overcast
1:56 PM 69.1 °F 59.0 °F 70% 29.72 in 10.0 mi NE 6.9 mph - N/A Thunderstorm Thunderstorm
2:56 PM 64.0 °F 61.0 °F 90% 29.72 in 4.0 mi Variable 5.8 mph - 0.06 in Rain , Thunderstorm Heavy Thunderstorms and Rain
3:01 PM 64.4 °F 60.8 °F 88% 29.75 in 1.8 mi SE 10.4 mph - 0.03 in Rain , Thunderstorm Heavy Thunderstorms and Rain
3:11 PM 64.4 °F 60.8 °F 88% 29.74 in 3.0 mi SE 8.1 mph - 0.05 in Rain , Thunderstorm Light Thunderstorms and Rain
3:49 PM 66.2 °F 62.6 °F 88% 29.75 in 10.0 mi NNE 6.9 mph - 0.05 in   Mostly Cloudy
3:56 PM 66.0 °F 63.0 °F 90% 29.71 in 10.0 mi North 6.9 mph - 0.05 in   Overcast
4:51 PM 66.2 °F 62.6 °F 88% 29.72 in 10.0 mi East 9.2 mph - N/A   Overcast
4:56 PM 66.9 °F 63.0 °F 87% 29.68 in 10.0 mi East 10.4 mph - N/A   Overcast
5:27 PM 66.2 °F 62.6 °F 88% 29.71 in 10.0 mi East 9.2 mph - N/A   Overcast
5:56 PM 66.0 °F 63.0 °F 90% 29.67 in 10.0 mi East 10.4 mph - N/A   Overcast
6:47 PM 64.4 °F 62.6 °F 94% 29.70 in 10.0 mi ESE 10.4 mph - N/A   Overcast
6:56 PM 64.0 °F 62.1 °F 93% 29.66 in 10.0 mi East 10.4 mph - N/A   Overcast
7:56 PM 63.0 °F 61.0 °F 93% 29.64 in 10.0 mi SE 9.2 mph - N/A   Overcast
8:56 PM 63.0 °F 61.0 °F 93% 29.63 in 10.0 mi SE 9.2 mph - 0.01 in   Overcast
9:56 PM 64.0 °F 62.1 °F 93% 29.62 in 10.0 mi SE 9.2 mph - 0.00 in   Overcast
10:56 PM 64.9 °F 63.0 °F 93% 29.60 in 10.0 mi SE 10.4 mph - 0.00 in Rain Light Rain
11:56 PM 66.0 °F 64.9 °F 96% 29.57 in 5.0 mi South 6.9 mph - 0.01 in Rain Light Rain